User: anonymous   Login
Location: Los Gatos B&B
(42.6926°N, 77.0646°W)
Time: 20:49:15
(UTC-04:00)
Language:

SL-16 R/B - Orbit

View from above orbital plane
View from above orbital plane
View from above satellite
View from above satellite

Ground track
Ground track

The orbit data is extracted from the following two-line orbital elements,

1 28353U 04021B   15108.84104774  .00000342  00000-0  20457-3 0  9998
2 28353 070.9996 295.8788 0006315 304.5534 055.4992 14.14123283560429
Epoch (UTC): 18 April 2015 20:11:06
Eccentricity: 0.0006315
inclination: 70.9996°
perigee height: 841 km
apogee height: 850 km
right ascension of ascending node: 295.8788°
argument of perigee: 304.5534°
revolutions per day: 14.14123283
mean anomaly at epoch: 55.4992°
orbit number at epoch: 56042

The dashed part of the orbit path shows where the satellite is in the earth's shadow,  

DLR